Back to catalog

STARLINK-31630

AliveCommunicationsVLEO
NORAD 59271·PAYLOAD·🇺🇸 United States

Launched Mar 19, 2024 from Vandenberg Space Force Base

Loading…

Next Passes (next 24 hours)

TLE

FreshSource: CelesTrak SupGP

Epoch: Sep 14, 2026, 21:17 UTC

1 59271C 24050T   26257.88729167  .00026600  00000+0  76095-3 0  2575
2 59271  53.1580   5.7118 0001910  14.8420 126.2260 15.35388189    11

Track STARLINK-31630 in real time with AllMySat

Download on the App Store